Location: Newark
(49.8969°N, 3.3422°E)
Time: 19:06:37
(UTC+00:00)

Envisat - Pass Details

Date: 12 December 2019
Orbit: 764 x 766 km, 98.1° (Epoch: 28 January)

Event Time Altitude Azimuth Distance (km) Brightness Sun altitude
Rises 06:43:11 0° 14° (NNE) 3,247 6.1 -8.0°
Reaches altitude 10° 06:45:30 10° 15° (NNE) 2,316 5.4 -7.6°
Maximum altitude 06:50:37 83° 104° (ESE) 779 3.2 -6.9°
Drops below altitude 10° 06:55:42 10° 193° (SSW) 2,298 5.7 -6.2°
Sets 06:58:00 0° 194° (SSW) 3,219 6.4 -5.9°
